Weather Roundup
Issued by NWS Chicago, IL

Home | Current Version | Previous Version | Text Only | Print | Product List | Glossary Off
Versions: 1 2 3 4 5 6 7 8 9 10 11 12 13 14 15 16 17 18 19 20 21 22 23 24 25 26 27 28 29 30 31 32 33 34 35 36 37 38 39 40 41 42 43 44 45 46 47 48 49 50

000
NZUS59 KLOT 142358
HRRLOT

CHICAGO AREA WEATHER ROUNDUP
NATIONAL WEATHER SERVICE CHICAGO/ROMEOVILLE IL
700 PM CDT SUN SEP 14 2014

NOTE: "FAIR" INDICATES FEW OR NO CLOUDS BELOW 12,000 FEET WITH NO
SIGNIFICANT WEATHER AND/OR OBSTRUCTIONS TO VISIBILITY.

* THESE STATIONS ARE NOT UNDER NWS QUALITY CONTROL. THEY ALSO MAY NOT
  REPORT WEATHER SUCH AS PRECIPITATION OR FOG.

ILZ005-006-012>014-019>023-150100-
NORTHEAST ILLINOIS

CITY           SKY/WX    TMP DP  RH WIND       PRES   REMARKS
OHARE          PTCLDY    62  43  49 SW6       30.17F
6HR MIN TEMP:  60; 6HR MAX TEMP:  65;

MIDWAY         PTCLDY    64  43  46 SW7       30.18S
6HR MIN TEMP:  63; 6HR MAX TEMP:  67;

AURORA         CLEAR     61  44  53 SW5       30.18S
6HR MIN TEMP:  61; 6HR MAX TEMP:  66;

WAUKEGAN       CLEAR     57  46  66 CALM      30.16S
6HR MIN TEMP:  57; 6HR MAX TEMP:  64;

DUPAGE AIRPORT CLEAR     60  45  57 SW5       30.18R
6HR MIN TEMP:  60; 6HR MAX TEMP:  67;

WHEELING       CLEAR     63  43  48 SW6       30.19S
6HR MIN TEMP:  61; 6HR MAX TEMP:  66;

NORTHERLY IS     N/A     64  41  42 S8          N/A
$$

WIZ051-052-058>065-066-070>072-150100-
SOUTHEAST WISCONSIN

CITY           SKY/WX    TMP DP  RH WIND       PRES   REMARKS
MILWAUKEE      PTCLDY    61  44  53 SW8       30.16S
6HR MIN TEMP:  60; 6HR MAX TEMP:  64;

WAUKESHA       CLEAR     57  45  62 SW7       30.16S
$$

INZ001>003-010>013-019-020-150100-
NORTHWEST INDIANA

CITY           SKY/WX    TMP DP  RH WIND       PRES   REMARKS
GARY*          PTCLDY    61  48  63 S6        30.19S
MICHIGAN CITY* NOT AVBL
RENSSELAER*    NOT AVBL
$$

LMZ740>746-150100-
SOUTHERN LAKE MICHIGAN

STATION/POSITION TIME  SKY/WX   TEMP WIND        PRES    VSBY
                                AIR  DIR/SP/G
                 (UTC)          (F)  (DEG/KT/KT) (MB)    (MI)
HARRISON CRIB    2300            64  210/ 10/ 12   N/A
BURNHAM HARBOR   2300            64  190/  7/ 11   N/A
CALUMET HARBOR   2300            64  200/  7/  8 1020.8F
BURNS HARBOR     NOT AVBL
MICHIGAN CITY    2300            63  210/  5/  6   N/A
$$

ABBREVIATIONS USED IN REMARKS
   TC - TEMPERATURE IN CELSIUS
  WCI - WIND CHILL INDEX
   HX - HEAT INDEX
  VSB - VISIBILITY
$$



USA.gov is the U.S. government's official web portal to all federal, state and local government web resources and services.